Regional Weather Roundup
Issued by NWS Kansas City/Pleasant Hill, MO

Home | Current Version | Previous Version | Text Only | Print | Product List | Glossary On
Versions: 1 2 3 4 5 6 7 8 9 10 11 12 13 14 15 16 17 18 19 20 21 22 23 24 25 26 27
000
ASUS43 KEAX 191310
RWREAX

WEATHER ROUNDUP FOR EASTERN KANSAS AND NORTHWEST MISSOURI
NATIONAL WEATHER SERVICE KANSAS CITY/PLEASANT HILL MO
700 AM CST SUN NOV 19 2017

KSZ040-057-103>105-MOZ028-029-037-043-191400-
...KANSAS CITY METROPOLITAN AREA...

CITY           SKY/WX    TMP DP  RH WIND       PRES   REMARKS
K.C. INTL      CLEAR     27  22  81 W6        30.24F WCI  20
K.C. DOWNTOWN  CLEAR     32  22  66 CALM      30.26S
LEES SUMMIT    CLEAR     31  22  69 NW3       30.25F
OLATHE - IXD   CLEAR     28  23  81 W5        30.27R WCI  23
OLATHE - OJC   CLEAR     28  23  81 CALM      30.26R
LAWRENCE       CLEAR     23  21  92 W5        30.28S WCI  17

$$

MOZ001>008-011>017-020>025-030>033-038>040-044>046-053-054-191400-
...NORTHERN AND CENTRAL MISSOURI...

CITY           SKY/WX    TMP DP  RH WIND       PRES   REMARKS
ST. JOSEPH     CLEAR     24  20  84 SW3       30.25S
MOSBY          SUNNY     27  23  86 CALM      30.26S
WARRENSBURG    CLEAR     30  23  74 NW5       30.26S WCI  25
WHITEMAN AFB   CLEAR     30  20  68 NW8       30.22R WCI  22
CLINTON        CLEAR     30  25  80 MISG      30.28R
SEDALIA        CLEAR     31  23  72 NW10      30.26R WCI  22
WARSAW         NOT AVBL
CHILLICOTHE      N/A     27  19  72 CALM      30.25R
KIRKSVILLE     CLEAR     25  18  74 NW8       30.19S WCI  16

$$

MOZ041-047>049-056>058-063>065-088>090-097-191400-
...EASTERN AND SOUTHERN MISSOURI...

CITY           SKY/WX    TMP DP  RH WIND       PRES   REMARKS
ST. LOUIS INTL PTCLDY    31  22  69 W14G20    30.16R WCI  21
SPIRIT OF STL  CLEAR     31  23  72 W9        30.18R WCI  23
COLUMBIA       CLEAR     29  20  69 NW12      30.21R WCI  19
JEFFERSON CITY CLEAR     30  22  72 NW7       30.24R WCI  23
ROLLA          CLEAR     29  21  72 NW13G20   30.19R WCI  19
OSAGE BEACH    PTCLDY    32  20  61 NW8       30.24R WCI  25
SPRINGFIELD    CLEAR     31  27  85 NW5       30.24R WCI  26
BRANSON        CLEAR     32  27  80 NW5       30.26R WCI  27
JOPLIN         CLEAR     30  28  92 CALM      30.30R
WEST PLAINS    CLEAR     32  19  58 NW7       30.20R WCI  26

$$

IAZ060-094-KSZ022-034>040-054-083-096-NEZ052-066-093-191400-
...KANSAS...SOUTHEAST NEBRASKA AND IOWA...

CITY           SKY/WX    TMP DP  RH WIND       PRES   REMARKS
TOPEKA         CLEAR     27  25  92 CALM      30.27F
MANHATTAN      CLEAR     22  20  92 CALM      30.26F
EMPORIA        CLEAR     29  23  78 W5        30.28S WCI  24
CHANUTE        CLEAR     28  24  85 CALM      30.30R
WICHITA        CLEAR     26  23  88 CALM      30.28S
OMAHA          CLEAR     24  18  77 SE5       30.21R WCI  18
LINCOLN        CLEAR     22  19  89 S5        30.22S WCI  16
FALLS CITY     CLEAR     26  21  81 SW3       30.23S
LAMONI         CLEAR     22  17  81 W6        30.19R WCI  14
DES MOINES     PTCLDY    22  15  75 W6        30.18R WCI  14

$$





USA.gov is the U.S. government's official web portal to all federal, state and local government web resources and services.